Regional Weather Roundup
Issued by NWS Spokane, WA

Home | Current Version | Previous Version | Text Only | Print | Product List | Glossary On
Versions: 1 2 3 4 5 6 7 8 9 10 11 12 13 14 15 16 17 18 19 20 21 22 23 24 25 26 27 28 29 30 31 32 33 34 35 36 37 38 39 40 41 42 43 44 45 46 47 48 49 50
000
NZUS01 KOTX 270610
RWROTX
EASTERN WASHINGTON/NORTHERN IDAHO ROUNDUP
NATIONAL WEATHER SERVICE, SPOKANE WA
1100 PM PDT THU MAR 26 2015

Note: "fair" indicated few or no clouds below 12,000 feet with no
significant weather and/or obstructions to visibility.

...NORTHEAST WASHINGTON AND NORTHERN IDAHO PANHANDLE...

CITY           SKY/WX    TMP DP  RH WIND       PRES   REMARKS
SPOKANE INTL   CLEAR     50  44  80 CALM      30.21R
SPOKANE DOWNTO CLEAR     48  44  86 N3        30.21S
COEUR D ALENE  CLEAR     45  39  81 NE7       30.22S
DEER PARK      CLEAR     48  46  93 N5        30.22S
SANDPOINT      PTCLDY    43  43 100 CALM      30.23S
BONNERS FERRY  CLOUDY    46  41  81 N3        30.23R

...SOUTHEAST WASHINGTON AND SOUTHERN IDAHO PANHANDLE...

CITY           SKY/WX    TMP DP  RH WIND       PRES   REMARKS
WALLA WALLA    CLEAR     57  47  69 E7        30.14S
PULLMAN/MOSCOW CLEAR     51  44  77 E10       30.21F
LEWISTON       CLEAR     54  47  77 S5        30.18S
LOWELL           N/A     46  44  93 N6        30.28S

...COLUMBIA BASIN...

CITY           SKY/WX    TMP DP  RH WIND       PRES   REMARKS
EPHRATA        PTCLDY    53  48  83 N6        30.16S
MOSES LAKE     PTCLDY    51  47  86 N8        30.17F
TRI CITIES     CLEAR     50  47  89 N7        30.14S
HERMISTON      CLEAR     53  48  83 S3        30.12S
PENDLETON      CLEAR     53  45  74 E8        30.13S

...EAST SLOPES CASCADES...

CITY           SKY/WX    TMP DP  RH WIND       PRES   REMARKS
THE DALLES     CLEAR     56  50  80 NW5       30.12S
YAKIMA         CLEAR     53  46  77 W7        30.16S
ELLENSBURG     PTCLDY    53  46  77 NW3       30.17S
WENATCHEE      PTCLDY    61  48  62 CALM      30.16F
OMAK           MOCLDY    46  43  89 NW3       30.19F

...SOUTHERN BRITISH COLUMBIA...

CITY           SKY/WX    TMP DP  RH WIND       PRES   REMARKS
PENTICTON      PTCLDY    45  43  93 CALM      30.18F
CRANBROOK      PTCLDY    48  39  71 S12       30.18R

...WESTERN MONTANA...

CITY           SKY/WX    TMP DP  RH WIND       PRES   REMARKS
MISSOULA       CLEAR     41  37  86 N3        30.28F

...NEIGHBORING CITIES...

CITY           SKY/WX    TMP DP  RH WIND       PRES   REMARKS
SEATTLE        PTCLDY    56  49  77 N9        30.15F
CALGARY        MOCLDY    54  32  43 W17       30.00R



USA.gov is the U.S. government's official web portal to all federal, state and local government web resources and services.